Terminal Aerodrome Forecast
Issued by NWS Raleigh/Durham, NC

Home | Current Version | Previous Version | Text Only | Print | Product List | Glossary On
Versions: 1 2 3 4 5 6 7 8 9 10 11 12 13 14 15 16 17 18 19 20 21 22 23 24 25 26 27 28 29 30 31 32 33 34 35 36 37 38 39 40 41 42 43 44 45 46 47 48 49 50
000
FTUS42 KRAH 220035 AAA
TAFRDU
TAF AMD
KRDU 220035Z 2201/2224 24005KT P6SM VCSH SCT040 BKN060
      TEMPO 2201/2205 VRB20G30KT 3SM SHRA BKN025 OVC050
     FM220600 VRB05KT P6SM SCT080 BKN180
      TEMPO 2208/2212 00000KT 3SM BR SCT005=

USA.gov is the U.S. government's official web portal to all federal, state and local government web resources and services.